• In Russia
  • List of Countries
  • For 7 days
  • Water Temperature
  • Weather Map
  • Weather Widgets
  • user-avatar
    Login

    Hourly Weather Sevan

    Today, 5 April, Sunday

    Time Temperature Precipitation Wind Pressure Humidity
    00:00 +3°C° 0 mm 2 mps 643 mmHg 68%
    01:00 +4°C° 0 mm 1 mps 643 mmHg 68%
    02:00 +4°C° 0 mm 1 mps 642 mmHg 67%
    03:00 +4°C° 0 mm 1 mps 643 mmHg 67%
    04:00 +4°C° 0 mm 1 mps 643 mmHg 68%
    05:00 +4°C° 0 mm 1 mps 643 mmHg 68%
    06:00 +4°C° 0 mm 1 mps 643 mmHg 69%
    07:00 +6°C° 0 mm 1 mps 643 mmHg 65%
    08:00 +6°C° 0 mm 2 mps 644 mmHg 62%
    09:00 +8°C° 0 mm 2 mps 644 mmHg 62%
    10:00 +9°C° 0 mm 2 mps 644 mmHg 60%
    11:00 +10°C° 0 mm 2 mps 644 mmHg 58%
    12:00 +12°C° 0 mm 2 mps 644 mmHg 56%
    13:00 +12°C° 0 mm 2 mps 644 mmHg 53%
    14:00 +12°C° 0 mm 3 mps 643 mmHg 50%
    15:00 +12°C° 0 mm 3 mps 643 mmHg 46%
    16:00 +13°C° 0 mm 2 mps 643 mmHg 49%
    17:00 +12°C° 0 mm 2 mps 642 mmHg 51%
    18:00 +11°C° 0 mm 1 mps 642 mmHg 53%
    19:00 +11°C° 0 mm 1 mps 642 mmHg 55%
    20:00 +10°C° 0 mm 1 mps 642 mmHg 56%
    21:00 +9°C° 0 mm 1 mps 642 mmHg 57%
    22:00 +9°C° 0 mm 1 mps 642 mmHg 59%
    23:00 +8°C° 0 mm 2 mps 642 mmHg 61%

    Tomorrow, 6 April, Monday

    Time Temperature Precipitation Wind Pressure Humidity
    00:00 +8°C° 0 mm 2 mps 641 mmHg 63%
    01:00 +8°C° 0.2 mm 2 mps 641 mmHg 67%
    02:00 +8°C° 0.2 mm 2 mps 641 mmHg 71%
    03:00 +8°C° 0.2 mm 1 mps 640 mmHg 76%
    04:00 +7°C° 0.1 mm 2 mps 640 mmHg 76%
    05:00 +7°C° 0.1 mm 2 mps 640 mmHg 76%
    06:00 +7°C° 0.1 mm 2 mps 640 mmHg 76%
    07:00 +8°C° 0.4 mm 2 mps 641 mmHg 75%
    08:00 +9°C° 0.4 mm 2 mps 641 mmHg 74%
    09:00 +9°C° 0.4 mm 2 mps 641 mmHg 73%
    10:00 +9°C° 0.8 mm 2 mps 641 mmHg 77%
    11:00 +9°C° 0.8 mm 2 mps 641 mmHg 81%
    12:00 +8°C° 0.8 mm 2 mps 641 mmHg 85%
    13:00 +8°C° 1.3 mm 2 mps 640 mmHg 85%
    14:00 +9°C° 1.3 mm 1 mps 640 mmHg 84%
    15:00 +9°C° 1.3 mm 1 mps 640 mmHg 83%
    16:00 +9°C° 0.1 mm 1 mps 640 mmHg 83%
    17:00 +9°C° 0.1 mm 1 mps 640 mmHg 82%
    18:00 +10°C° 0.1 mm 1 mps 640 mmHg 81%
    19:00 +9°C° 0 mm 1 mps 641 mmHg 82%
    20:00 +8°C° 0 mm 0 mps 641 mmHg 83%
    21:00 +8°C° 0 mm 0 mps 641 mmHg 83%
    22:00 +8°C° 0.1 mm 1 mps 641 mmHg 85%
    23:00 +8°C° 0.1 mm 1 mps 641 mmHg 86%

    Day after tomorrow, 7 April, Tuesday

    Time Temperature Precipitation Wind Pressure Humidity
    00:00 +8°C° 0.1 mm 1 mps 641 mmHg 88%
    01:00 +8°C° 0.2 mm 1 mps 641 mmHg 88%
    02:00 +6°C° 0.2 mm 2 mps 641 mmHg 88%
    03:00 +6°C° 0.2 mm 2 mps 641 mmHg 88%
    04:00 +6°C° 0.3 mm 2 mps 641 mmHg 86%
    05:00 +5°C° 0.3 mm 3 mps 641 mmHg 84%
    06:00 +4°C° 0.3 mm 3 mps 641 mmHg 83%
    07:00 +5°C° 0.2 mm 3 mps 641 mmHg 79%
    08:00 +5°C° 0.2 mm 3 mps 642 mmHg 76%
    09:00 +5°C° 0.2 mm 3 mps 642 mmHg 72%
    10:00 +7°C° 0 mm 3 mps 642 mmHg 69%
    11:00 +7°C° 0 mm 3 mps 642 mmHg 67%
    12:00 +8°C° 0 mm 3 mps 643 mmHg 64%
    13:00 +8°C° 0 mm 3 mps 643 mmHg 63%
    14:00 +8°C° 0 mm 3 mps 643 mmHg 62%
    15:00 +8°C° 0 mm 3 mps 643 mmHg 61%
    16:00 +6°C° 0 mm 4 mps 642 mmHg 63%
    17:00 +5°C° 0 mm 4 mps 642 mmHg 65%
    18:00 +4°C° 0 mm 4 mps 642 mmHg 68%
    19:00 +3°C° 0 mm 4 mps 643 mmHg 69%
    20:00 +3°C° 0 mm 4 mps 643 mmHg 70%
    21:00 +2°C° 0 mm 3 mps 643 mmHg 71%
    22:00 +2°C° 0 mm 3 mps 643 mmHg 71%
    23:00 +1°C° 0 mm 3 mps 643 mmHg 71%

    8 April, Wednesday

    Time Temperature Precipitation Wind Pressure Humidity
    00:00 +1°C° 0 mm 3 mps 644 mmHg 72%
    01:00 +1°C° 0 mm 3 mps 644 mmHg 71%
    02:00 0°C° 0 mm 3 mps 644 mmHg 70%
    03:00 0°C° 0 mm 3 mps 644 mmHg 70%
    04:00 0°C° 0 mm 3 mps 644 mmHg 70%
    05:00 +1°C° 0 mm 2 mps 644 mmHg 70%
    06:00 -1°C° 0 mm 2 mps 645 mmHg 70%
    07:00 +1°C° 0 mm 2 mps 645 mmHg 67%
    08:00 +2°C° 0 mm 2 mps 645 mmHg 63%
    09:00 +3°C° 0 mm 2 mps 645 mmHg 60%
    10:00 +5°C° 0 mm 2 mps 645 mmHg 59%
    11:00 +6°C° 0 mm 2 mps 645 mmHg 57%
    12:00 +7°C° 0 mm 2 mps 645 mmHg 56%
    13:00 +7°C° 0 mm 2 mps 645 mmHg 55%
    14:00 +8°C° 0 mm 2 mps 644 mmHg 54%
    15:00 +8°C° 0 mm 2 mps 644 mmHg 53%
    16:00 +7°C° 0 mm 2 mps 644 mmHg 57%
    17:00 +6°C° 0 mm 2 mps 643 mmHg 60%
    18:00 +6°C° 0 mm 2 mps 643 mmHg 64%
    19:00 +5°C° 0 mm 2 mps 643 mmHg 66%
    20:00 +4°C° 0 mm 2 mps 643 mmHg 68%
    21:00 +3°C° 0 mm 2 mps 642 mmHg 71%
    22:00 +3°C° 0 mm 2 mps 642 mmHg 71%
    23:00 +3°C° 0 mm 2 mps 642 mmHg 71%

    9 April, Thursday

    Time Temperature Precipitation Wind Pressure Humidity
    00:00 +3°C° 0 mm 2 mps 642 mmHg 72%
    01:00 +3°C° 0 mm 2 mps 641 mmHg 73%
    02:00 +3°C° 0 mm 1 mps 640 mmHg 75%
    03:00 +3°C° 0 mm 1 mps 640 mmHg 76%
    04:00 +3°C° 0 mm 1 mps 640 mmHg 76%
    05:00 +3°C° 0 mm 1 mps 639 mmHg 77%
    06:00 +3°C° 0 mm 1 mps 639 mmHg 77%
    07:00 +5°C° 0 mm 1 mps 639 mmHg 73%
    08:00 +6°C° 0 mm 1 mps 639 mmHg 69%
    09:00 +6°C° 0 mm 2 mps 639 mmHg 65%
    10:00 +8°C° 0 mm 2 mps 639 mmHg 62%
    11:00 +9°C° 0 mm 2 mps 638 mmHg 60%
    12:00 +10°C° 0 mm 2 mps 638 mmHg 58%
    13:00 +10°C° 0 mm 2 mps 638 mmHg 56%
    14:00 +12°C° 0 mm 2 mps 638 mmHg 55%
    15:00 +12°C° 0 mm 1 mps 637 mmHg 53%
    16:00 +12°C° 0 mm 1 mps 637 mmHg 56%
    17:00 +11°C° 0 mm 1 mps 637 mmHg 60%
    18:00 +11°C° 0 mm 1 mps 636 mmHg 63%
    19:00 +8°C° 0 mm 2 mps 636 mmHg 66%
    20:00 +7°C° 0 mm 2 mps 636 mmHg 69%
    21:00 +5°C° 0 mm 3 mps 636 mmHg 73%
    22:00 +5°C° 0 mm 3 mps 636 mmHg 73%
    23:00 +4°C° 0 mm 3 mps 636 mmHg 73%

    10 April, Friday

    Time Temperature Precipitation Wind Pressure Humidity
    00:00 +4°C° 0 mm 3 mps 636 mmHg 74%
    01:00 +4°C° 0 mm 3 mps 636 mmHg 74%
    02:00 +4°C° 0 mm 3 mps 635 mmHg 75%
    03:00 +5°C° 0 mm 2 mps 635 mmHg 75%
    04:00 +5°C° 0.2 mm 2 mps 635 mmHg 77%
    05:00 +5°C° 0.2 mm 2 mps 635 mmHg 79%
    06:00 +6°C° 0.2 mm 1 mps 635 mmHg 81%
    07:00 +6°C° 0.3 mm 1 mps 635 mmHg 82%
    08:00 +7°C° 0.3 mm 1 mps 635 mmHg 82%
    09:00 +7°C° 0.3 mm 1 mps 635 mmHg 82%
    10:00 +8°C° 0.3 mm 1 mps 635 mmHg 82%
    11:00 +8°C° 0.3 mm 1 mps 635 mmHg 81%
    12:00 +9°C° 0.3 mm 1 mps 635 mmHg 80%
    13:00 +8°C° 0.1 mm 2 mps 635 mmHg 76%
    14:00 +9°C° 0.1 mm 2 mps 635 mmHg 73%
    15:00 +10°C° 0.1 mm 2 mps 635 mmHg 69%
    16:00 +9°C° 0.2 mm 2 mps 635 mmHg 70%
    17:00 +9°C° 0.2 mm 2 mps 635 mmHg 71%
    18:00 +8°C° 0.2 mm 3 mps 635 mmHg 73%
    19:00 +7°C° 0.3 mm 3 mps 635 mmHg 75%
    20:00 +7°C° 0.3 mm 3 mps 635 mmHg 77%
    21:00 +5°C° 0.3 mm 3 mps 635 mmHg 79%
    22:00 +4°C° 1.8 mm 3 mps 635 mmHg 83%
    23:00 +4°C° 1.8 mm 3 mps 635 mmHg 87%
    Show more